When you browse on this site, cookies collect data to enhance your experience and personalize the content and advertising you see.
Visit our Privacy Policy to learn more. By continuing to use the site, you agree to this use of cookies and data.
  • In Schweiz
  • Länderverzeichnis
  • Für 7 Tage
  • Wassertemperatur
  • Wetterkarte
  • Widgets
  • user-avatar
    Anmelden

    Stündliche Wetter Lehrte

    Heute, 3 Juni, Mittwoch

    Zeit Temperatur Niederschläge Wind Luftdruck Luftfeuchtigkeit
    00:00 +16°C° 0 mm 1 m/S 752 mmHg 80%
    01:00 +16°C° 0 mm 2 m/S 752 mmHg 80%
    02:00 +16°C° 0 mm 2 m/S 751 mmHg 82%
    03:00 +15°C° 0 mm 2 m/S 750 mmHg 83%
    04:00 +15°C° 0 mm 1 m/S 750 mmHg 85%
    05:00 +16°C° 0.1 mm 1 m/S 750 mmHg 83%
    06:00 +18°C° 0.1 mm 1 m/S 749 mmHg 81%
    07:00 +18°C° 0 mm 2 m/S 749 mmHg 78%
    08:00 +21°C° 0.1 mm 1 m/S 749 mmHg 73%
    09:00 +22°C° 0.1 mm 1 m/S 749 mmHg 67%
    10:00 +24°C° 0.1 mm 1 m/S 748 mmHg 62%
    11:00 +24°C° 0.7 mm 1 m/S 748 mmHg 59%
    12:00 +25°C° 0.7 mm 1 m/S 748 mmHg 55%
    13:00 +26°C° 0.7 mm 1 m/S 747 mmHg 52%
    14:00 +25°C° 0.4 mm 2 m/S 747 mmHg 55%
    15:00 +25°C° 0.4 mm 2 m/S 746 mmHg 57%
    16:00 +25°C° 0.4 mm 2 m/S 746 mmHg 60%
    17:00 +23°C° 0.9 mm 2 m/S 745 mmHg 67%
    18:00 +21°C° 0.9 mm 2 m/S 745 mmHg 74%
    19:00 +19°C° 0.9 mm 2 m/S 745 mmHg 81%
    20:00 +18°C° 0.3 mm 2 m/S 745 mmHg 83%
    21:00 +17°C° 0.3 mm 2 m/S 744 mmHg 84%
    22:00 +16°C° 0.3 mm 1 m/S 744 mmHg 85%
    23:00 +15°C° 0.1 mm 2 m/S 744 mmHg 86%

    Morgen, 4 Juni, Donnerstag

    Zeit Temperatur Niederschläge Wind Luftdruck Luftfeuchtigkeit
    00:00 +15°C° 0.1 mm 2 m/S 743 mmHg 88%
    01:00 +15°C° 0.1 mm 2 m/S 743 mmHg 90%
    02:00 +14°C° 0.1 mm 2 m/S 742 mmHg 90%
    03:00 +14°C° 0.1 mm 1 m/S 742 mmHg 91%
    04:00 +14°C° 0.1 mm 1 m/S 741 mmHg 91%
    05:00 +14°C° 0.1 mm 1 m/S 741 mmHg 91%
    06:00 +15°C° 0.1 mm 1 m/S 741 mmHg 90%
    07:00 +16°C° 0.1 mm 1 m/S 740 mmHg 89%
    08:00 +16°C° 1.1 mm 1 m/S 740 mmHg 90%
    09:00 +16°C° 1.1 mm 1 m/S 740 mmHg 92%
    10:00 +16°C° 1.1 mm 1 m/S 740 mmHg 93%
    11:00 +16°C° 1.4 mm 1 m/S 740 mmHg 93%
    12:00 +16°C° 1.4 mm 1 m/S 739 mmHg 94%
    13:00 +15°C° 1.4 mm 1 m/S 739 mmHg 94%
    14:00 +16°C° 0.3 mm 2 m/S 739 mmHg 91%
    15:00 +17°C° 0.3 mm 3 m/S 739 mmHg 88%
    16:00 +17°C° 0.3 mm 3 m/S 738 mmHg 84%
    17:00 +15°C° 0.3 mm 4 m/S 739 mmHg 85%
    18:00 +14°C° 0.3 mm 5 m/S 739 mmHg 86%
    19:00 +13°C° 0.3 mm 5 m/S 739 mmHg 87%
    20:00 +12°C° 0 mm 5 m/S 739 mmHg 89%
    21:00 +10°C° 0 mm 5 m/S 740 mmHg 91%
    22:00 +10°C° 0 mm 4 m/S 740 mmHg 92%
    23:00 +10°C° 0 mm 4 m/S 740 mmHg 92%

    übermorgen, 5 Juni, Freitag

    Zeit Temperatur Niederschläge Wind Luftdruck Luftfeuchtigkeit
    00:00 +8°C° 0 mm 4 m/S 741 mmHg 91%
    01:00 +8°C° 0 mm 4 m/S 741 mmHg 90%
    02:00 +7°C° 0 mm 4 m/S 741 mmHg 89%
    03:00 +6°C° 0 mm 4 m/S 741 mmHg 88%
    04:00 +5°C° 0 mm 4 m/S 741 mmHg 87%
    05:00 +7°C° 0 mm 4 m/S 742 mmHg 83%
    06:00 +8°C° 0 mm 5 m/S 742 mmHg 79%
    07:00 +9°C° 0 mm 5 m/S 742 mmHg 74%
    08:00 +10°C° 0 mm 5 m/S 742 mmHg 69%
    09:00 +12°C° 0 mm 5 m/S 742 mmHg 63%
    10:00 +13°C° 0 mm 5 m/S 741 mmHg 58%
    11:00 +14°C° 0 mm 5 m/S 741 mmHg 55%
    12:00 +15°C° 0 mm 5 m/S 741 mmHg 53%
    13:00 +16°C° 0 mm 5 m/S 740 mmHg 51%
    14:00 +15°C° 0.2 mm 6 m/S 740 mmHg 59%
    15:00 +14°C° 0.2 mm 6 m/S 740 mmHg 67%
    16:00 +12°C° 0.2 mm 7 m/S 739 mmHg 75%
    17:00 +11°C° 1.1 mm 6 m/S 739 mmHg 80%
    18:00 +10°C° 1.1 mm 5 m/S 739 mmHg 85%
    19:00 +9°C° 1.1 mm 5 m/S 739 mmHg 90%
    20:00 +8°C° 0.1 mm 4 m/S 740 mmHg 90%
    21:00 +8°C° 0.1 mm 4 m/S 740 mmHg 91%
    22:00 +7°C° 0.1 mm 4 m/S 741 mmHg 92%
    23:00 +7°C° 0 mm 4 m/S 741 mmHg 92%

    6 Juni, Samstag

    Zeit Temperatur Niederschläge Wind Luftdruck Luftfeuchtigkeit
    00:00 +7°C° 0 mm 3 m/S 741 mmHg 92%
    01:00 +7°C° 0 mm 3 m/S 741 mmHg 92%
    02:00 +7°C° 0 mm 3 m/S 742 mmHg 92%
    03:00 +8°C° 0 mm 3 m/S 742 mmHg 92%
    04:00 +8°C° 0 mm 3 m/S 742 mmHg 92%
    05:00 +8°C° 0.2 mm 4 m/S 742 mmHg 90%
    06:00 +8°C° 0.2 mm 5 m/S 742 mmHg 87%
    07:00 +9°C° 0.2 mm 6 m/S 742 mmHg 85%
    08:00 +10°C° 0.2 mm 7 m/S 743 mmHg 77%
    09:00 +11°C° 0.2 mm 8 m/S 743 mmHg 69%
    10:00 +12°C° 0.2 mm 8 m/S 743 mmHg 61%
    11:00 +13°C° 0.1 mm 8 m/S 744 mmHg 57%
    12:00 +15°C° 0.1 mm 8 m/S 744 mmHg 53%
    13:00 +16°C° 0.1 mm 8 m/S 744 mmHg 49%
    14:00 +16°C° 0 mm 8 m/S 744 mmHg 49%
    15:00 +16°C° 0 mm 7 m/S 744 mmHg 49%
    16:00 +16°C° 0 mm 7 m/S 744 mmHg 49%
    17:00 +15°C° 0 mm 5 m/S 745 mmHg 54%
    18:00 +15°C° 0 mm 4 m/S 745 mmHg 59%
    19:00 +14°C° 0 mm 3 m/S 745 mmHg 64%
    20:00 +13°C° 0 mm 3 m/S 746 mmHg 66%
    21:00 +11°C° 0 mm 3 m/S 746 mmHg 68%
    22:00 +10°C° 0 mm 3 m/S 747 mmHg 70%
    23:00 +9°C° 0 mm 3 m/S 747 mmHg 72%

    7 Juni, Sonntag

    Zeit Temperatur Niederschläge Wind Luftdruck Luftfeuchtigkeit
    00:00 +8°C° 0 mm 3 m/S 747 mmHg 75%
    01:00 +8°C° 0 mm 3 m/S 747 mmHg 77%
    02:00 +7°C° 0 mm 3 m/S 747 mmHg 79%
    03:00 +7°C° 0 mm 3 m/S 748 mmHg 80%
    04:00 +7°C° 0 mm 3 m/S 748 mmHg 81%
    05:00 +8°C° 0 mm 3 m/S 748 mmHg 76%
    06:00 +8°C° 0 mm 4 m/S 748 mmHg 71%
    07:00 +9°C° 0 mm 5 m/S 748 mmHg 67%
    08:00 +10°C° 0 mm 5 m/S 749 mmHg 63%
    09:00 +12°C° 0 mm 5 m/S 749 mmHg 59%
    10:00 +13°C° 0 mm 5 m/S 749 mmHg 55%
    11:00 +14°C° 0 mm 5 m/S 750 mmHg 55%
    12:00 +15°C° 0 mm 5 m/S 750 mmHg 55%
    13:00 +15°C° 0 mm 5 m/S 750 mmHg 54%
    14:00 +16°C° 0.1 mm 5 m/S 750 mmHg 55%
    15:00 +16°C° 0.1 mm 5 m/S 750 mmHg 55%
    16:00 +17°C° 0.1 mm 5 m/S 750 mmHg 55%
    17:00 +17°C° 0.2 mm 4 m/S 750 mmHg 62%
    18:00 +16°C° 0.2 mm 3 m/S 750 mmHg 69%
    19:00 +14°C° 0.2 mm 3 m/S 750 mmHg 76%
    20:00 +13°C° 0 mm 3 m/S 751 mmHg 78%
    21:00 +12°C° 0 mm 2 m/S 751 mmHg 80%
    22:00 +10°C° 0 mm 2 m/S 751 mmHg 82%
    23:00 +10°C° 0 mm 2 m/S 751 mmHg 82%

    8 Juni, Montag

    Zeit Temperatur Niederschläge Wind Luftdruck Luftfeuchtigkeit
    00:00 +9°C° 0 mm 2 m/S 751 mmHg 83%
    01:00 +9°C° 0 mm 2 m/S 751 mmHg 84%
    02:00 +8°C° 0 mm 2 m/S 751 mmHg 85%
    03:00 +8°C° 0 mm 2 m/S 751 mmHg 86%
    04:00 +8°C° 0 mm 2 m/S 751 mmHg 87%
    05:00 +9°C° 0 mm 3 m/S 751 mmHg 84%
    06:00 +10°C° 0 mm 3 m/S 751 mmHg 81%
    07:00 +12°C° 0 mm 3 m/S 751 mmHg 78%
    08:00 +13°C° 0 mm 3 m/S 751 mmHg 72%
    09:00 +15°C° 0 mm 4 m/S 752 mmHg 67%
    10:00 +18°C° 0 mm 4 m/S 752 mmHg 62%
    11:00 +18°C° 0.4 mm 4 m/S 751 mmHg 62%
    12:00 +19°C° 0.4 mm 4 m/S 751 mmHg 61%
    13:00 +19°C° 0.4 mm 4 m/S 751 mmHg 60%
    14:00 +19°C° 0.8 mm 4 m/S 751 mmHg 64%
    15:00 +19°C° 0.8 mm 4 m/S 751 mmHg 68%
    16:00 +18°C° 0.8 mm 4 m/S 751 mmHg 72%
    17:00 +17°C° 0.5 mm 3 m/S 751 mmHg 76%
    18:00 +17°C° 0.5 mm 3 m/S 751 mmHg 80%
    19:00 +16°C° 0.5 mm 3 m/S 751 mmHg 84%
    20:00 +13°C° 0.1 mm 3 m/S 751 mmHg 86%
    21:00 +12°C° 0.1 mm 3 m/S 751 mmHg 88%
    22:00 +10°C° 0.1 mm 3 m/S 751 mmHg 90%
    23:00 +10°C° 0.1 mm 3 m/S 751 mmHg 92%
    Mehr zeigen